Weather History for Jaffrey, NH

Change the Weather History Date:

Wednesday, November 7, 2012

  Actual Average Record
Temperature  
Mean Temperature 28 °F -  
Max Temperature 34 °F 45 °F 62 °F (2004)
Min Temperature 21 °F 29 °F 21 °F (2002)
Degree Days  
Heating Degree Days 38    
Moisture  
Dew Point 14 °F    
Average Humidity 55    
Maximum Humidity 78    
Minimum Humidity 31    
Precipitation  
Precipitation 0.00 in - - ()
Sea Level Pressure  
Sea Level Pressure 30.05 in    
Wind  
Wind Speed 5 mph (NNE)    
Max Wind Speed 14 mph    
Max Gust Speed 30 mph    
Visibility 10 miles    
Events Snow    
Averages and records for this station are not official NWS values.
T = Trace of Precipitation, MM = Missing Value Source: NWS Daily Summary

Daily Weather History Graph

Daily Weather History Graph

Search for Another Location

Airport:

Trip Planner

Search our weather history database for the weather conditions in past years. The results will help you decide how hot, cold, wet, or windy it might be!

Date:

Astronomy

Nov. 07, 2012 Rise Set
Actual Time 6:30 AM EST 4:32 PM EST
Civil Twilight 6:00 AM EST 5:02 PM EST
Nautical Twilight 5:26 AM EST 5:36 PM EST
Astronomical Twilight 4:53 AM EST 6:09 PM EST
Moon No Moon Rise 12:49 PM EST (11/7)
Length of Visible Light 11h 01m
Length of Day
10h 02m
Last Quarter, 43% of the Moon is Illuminated
Nov 7
Last Quarter
Nov 13
New
Nov 20
First Quarter
Nov 28
Full
Dec 6
Last Quarter

Hourly Weather History & Observations

Time (EST) Temp. Windchill Dew Point Humidity Pressure Visibility Wind Dir Wind Speed Gust Speed Precip Events Conditions
12:52 AM 21.0 °F 16.2 °F 15.1 °F 78% 30.20 in 10.0 mi NNE 3.5 mph - N/A   Clear
1:52 AM 23.0 °F - 16.0 °F 74% 30.20 in 10.0 mi Calm Calm - N/A   Scattered Clouds
2:02 AM 23.0 °F - 15.8 °F 74% 30.14 in 10.0 mi Calm Calm - N/A   Mostly Cloudy
2:52 AM 24.1 °F - 16.0 °F 71% 30.19 in 10.0 mi Calm Calm - N/A   Mostly Cloudy
3:52 AM 26.1 °F - 16.0 °F 66% 30.18 in 10.0 mi Calm Calm - N/A   Overcast
4:35 AM 26.6 °F 18.2 °F 15.8 °F 64% 30.10 in 10.0 mi North 8.1 mph - N/A   Scattered Clouds
4:52 AM 27.0 °F 21.6 °F 16.0 °F 63% 30.15 in 10.0 mi Variable 4.6 mph - N/A   Scattered Clouds
5:02 AM 26.6 °F 22.6 °F 15.8 °F 64% 30.09 in 10.0 mi North 3.5 mph - N/A   Mostly Cloudy
5:52 AM 27.0 °F 19.5 °F 16.0 °F 63% 30.15 in 10.0 mi Variable 6.9 mph - N/A   Overcast
6:52 AM 28.0 °F 21.7 °F 16.0 °F 61% 30.14 in 10.0 mi Variable 5.8 mph - N/A   Overcast
7:52 AM 28.9 °F 22.8 °F 15.1 °F 56% 30.14 in 10.0 mi Variable 5.8 mph - N/A   Overcast
8:52 AM 28.9 °F 22.8 °F 16.0 °F 58% 30.12 in 10.0 mi Variable 5.8 mph - N/A   Overcast
9:52 AM 30.0 °F 23.2 °F 15.1 °F 54% 30.11 in 10.0 mi Variable 6.9 mph - N/A   Overcast
10:52 AM 30.0 °F 22.4 °F 15.1 °F 54% 30.09 in 10.0 mi North 8.1 mph 19.6 mph N/A   Scattered Clouds
11:52 AM 30.0 °F 24.1 °F 14.0 °F 51% 30.06 in 10.0 mi Variable 5.8 mph - N/A   Partly Cloudy
1:52 PM 30.0 °F 23.2 °F 12.0 °F 47% 30.00 in 10.0 mi Variable 6.9 mph 19.6 mph N/A   Overcast
2:52 PM 30.9 °F 26.2 °F 10.9 °F 43% 29.99 in 10.0 mi Variable 4.6 mph - N/A   Overcast
3:52 PM 30.9 °F 23.5 °F 10.9 °F 43% 29.98 in 10.0 mi NNE 8.1 mph - N/A   Overcast
4:52 PM 32.0 °F 27.5 °F 10.0 °F 40% 29.97 in 10.0 mi Variable 4.6 mph - N/A   Overcast
5:52 PM 32.0 °F 27.5 °F 9.0 °F 38% 29.96 in 10.0 mi Variable 4.6 mph - N/A   Overcast
6:52 PM 33.1 °F 27.7 °F 6.1 °F 32% 29.95 in 10.0 mi Variable 5.8 mph - N/A   Overcast
7:52 PM 34.0 °F 26.6 °F 6.1 °F 31% 29.94 in 10.0 mi NNE 9.2 mph 16.1 mph N/A   Overcast
8:52 PM 33.1 °F 23.9 °F 12.9 °F 43% 29.94 in 10.0 mi NNE 12.7 mph 23.0 mph N/A   Overcast
9:52 PM 33.1 °F 24.4 °F 12.9 °F 43% 29.90 in 10.0 mi NNE 11.5 mph 29.9 mph 0.00 in   Overcast
10:52 PM 32.0 °F 27.5 °F 18.0 °F 56% 29.88 in 10.0 mi Variable 4.6 mph 19.6 mph 0.00 in   Overcast
11:05 PM 32.0 °F 22.1 °F 17.6 °F 55% 29.82 in 5.0 mi NNE 13.8 mph 26.5 mph 0.00 in Snow Light Snow
11:52 PM 30.0 °F 23.2 °F 23.0 °F 75% 29.86 in 2.5 mi Variable 6.9 mph 17.3 mph 0.00 in Snow Light Snow